Content
SEND FEEDBACK

Daily
Averages
Monthly
Summary
Canada

LONDON, ONTARIO


Home > North America > Canada > Ontario
Elevation: 912 feet     Latitude: 43 02N     Longitude: 081 09W

WEATHER
 
SELECT A DAY
Number of Records: 191,696;   Date Range: 1/1/95 - 9/17/14
 
SHARE

PRINT THIS DATA

[ ← Previous Day ]
WEATHER ALMANAC - OCTOBER 25, 2013
[ Next Day → ]
[ °C ]   °F
Weather ElementAverageHighLow
Temperature37.9 °F45 °F (2:00 pm)33.8 °F (1:00 am)
Dewpoint33.6 °F39.2 °F (11:22 am)28 °F (8:00 pm)
Humidity85.1 %100 % (1:00 am)51 % (8:00 pm)
Barometer30.20 in30.27 in (10:00 am)30.11 in (1:00 am)
Wind Speed8 mph16.1 mph (2:00 pm)
Wind Gust24.2 mph (2:00 pm)
Weather ElementAverage
Visibility10.9 mi
Wind DirectionWSW (256.5 °)

Weather ElementTotal
Precipitation---
Heating Degree Days25.6 (Base 65)
Averaged from 40 records on October 25, 2013
WEATHER CONDITIONS BREAKOUT
WIND DIRECTION BREAKOUT
WEATHER BY HOUR - OCTOBER 25, 2013
[ °C ]   °F
Local TimeTemperatureDewpointHumidityBarometerVisibilityWind DirectionWind SpeedGust SpeedPrecipitationEventsConditions
1:00 AM33.8 °F33.8 °F100 %30.11 in4.0 miNW (320°)6.9 mphRainLight Rain Showers
1:17 AM33.8 °F32.0 °F93 %30.12 in4.0 miWNW (300°)6.9 mphRain-SnowLight Rain Showers
2:00 AM34.0 °F33.0 °F95 %30.13 in6.0 miWest (260°)6.9 mphOvercast
2:00 AM33.8 °F33.8 °F100 %30.13 in6.0 miWest (260°)6.9 mphRain-SnowLight Rain Showers
2:35 AM33.8 °F33.8 °F100 %30.14 in4.0 miWest (270°)8.1 mphRain-SnowLight Rain Showers
3:00 AM33.8 °F33.8 °F100 %30.14 in6.0 miWest (280°)4.6 mphRain-SnowLight Rain Showers
4:00 AM35.6 °F33.8 °F93 %30.15 in6.0 miWNW (300°)3.5 mphRainLight Rain Showers
5:00 AM35.6 °F35.6 °F100 %30.15 in6.0 miCalmRainLight Rain Showers
6:00 AM35.6 °F33.8 °F93 %30.18 in5.0 miWSW (240°)3.5 mphRain-SnowLight Rain Showers
6:09 AM35.6 °F33.8 °F93 %30.18 in15.0 miSW (230°)5.8 mphSnowLight Snow Showers
6:42 AM35.6 °F35.6 °F100 %30.19 in15.0 miSW (220°)5.8 mphMostly Cloudy
7:00 AM35.6 °F35.6 °F100 %30.20 in15.0 miWest (260°)5.8 mphMostly Cloudy
7:16 AM35.6 °F35.6 °F100 %30.20 in5.0 miWest (260°)5.8 mphRain-SnowLight Rain Showers
7:23 AM35.6 °F35.6 °F100 %30.21 in5.0 miWSW (250°)4.6 mphRain-SnowLight Rain Showers
7:33 AM35.6 °F35.6 °F100 %30.21 in8.0 miWest (260°)5.8 mphRain-SnowLight Rain Showers
7:49 AM35.6 °F35.6 °F100 %30.21 in10.0 miWest (260°)5.8 mphRain-SnowLight Rain Showers
8:00 AM36.0 °F35.0 °F93 %30.22 in7.0 miWNW (290°)5.8 mphOvercast
8:00 AM35.6 °F33.8 °F93 %30.22 in8.0 miWNW (290°)6.9 mphRain-SnowLight Rain Showers
8:20 AM35.6 °F33.8 °F93 %30.23 in10.0 miWSW (250°)8.1 mphOvercast
9:00 AM35.6 °F33.8 °F93 %30.25 in10.0 miWest (270°)8.1 mphOvercast
9:04 AM35.6 °F33.8 °F93 %30.25 in8.0 miWest (260°)9.2 mphRain-SnowLight Rain Showers
9:49 AM35.6 °F35.6 °F100 %30.26 in10.0 miWest (280°)8.1 mphSnowLight Snow Showers
10:00 AM37.4 °F35.6 °F93 %30.27 in10.0 miWest (280°)6.9 mphSnowLight Snow Showers
10:30 AM39.2 °F37.4 °F93 %30.26 in12.0 miWest (270°)6.9 mphMostly Cloudy
11:00 AM41.0 °F37.4 °F87 %30.25 in15.0 miNW (320°)6.9 mphMostly Cloudy
11:22 AM42.8 °F39.2 °F87 %30.25 in15.0 miWest (280°)5.8 mphScattered Clouds
12:00 PM42.8 °F37.4 °F81 %30.26 in15.0 miWest (270°)15.0 mph20.7 mphMostly Cloudy
1:00 PM42.8 °F37.4 °F81 %30.25 in15.0 miWest (270°)12.7 mph20.7 mphMostly Cloudy
2:00 PM45.0 °F33.0 °F52 %30.24 in15.0 miWest (260°)16.1 mph
2:00 PM44.6 °F33.8 °F66 %30.24 in15.0 miWest (280°)16.1 mph24.2 mphMostly Cloudy
3:00 PM44.6 °F32.0 °F61 %30.22 in15.0 miWest (260°)10.4 mphMostly Cloudy
4:00 PM42.8 °F30.2 °F61 %30.22 in15.0 miWest (270°)10.4 mphMostly Cloudy
5:00 PM42.8 °F30.2 °F61 %30.22 in15.0 miWest (260°)10.4 mph17.3 mphMostly Cloudy
6:00 PM42.8 °F28.4 °F57 %30.21 in15.0 miWSW (250°)10.4 mphOvercast
7:00 PM41.0 °F30.2 °F65 %30.20 in15.0 miWSW (240°)5.8 mphMostly Cloudy
8:00 PM40.0 °F28.0 °F51 %30.19 in15.0 miWSW (240°)10.4 mph
8:00 PM41.0 °F28.4 °F61 %30.19 in15.0 miSW (230°)10.4 mphMostly Cloudy
9:00 PM37.4 °F28.4 °F70 %30.17 in15.0 miSSW (210°)9.2 mphScattered Clouds
10:00 PM37.4 °F28.4 °F70 %30.16 in15.0 miSW (230°)10.4 mphScattered Clouds
11:00 PM37.4 °F30.2 °F75 %30.14 in15.0 miSW (230°)13.8 mph20.7 mphPartly Cloudy
Hourly data recorded from CYXU, located miles away from London, Ontario







STORIES FROM OUR PARTNERS